TimeIST,TemperatureF,Dew PointF,Humidity,Sea Level PressureIn,VisibilityMPH,Wind Direction,Wind SpeedMPH,Gust SpeedMPH,PrecipitationIn,Events,Conditions,WindDirDegrees,DateUTC
12:00 AM,51.8,51.8,100,30.04,0.3,Calm,Calm,-,N/A,Fog,Fog,0,2013-02-11 18:30:00
12:30 AM,50.0,50.0,100,30.04,0.3,Calm,Calm,-,N/A,Fog,Fog,0,2013-02-11 19:00:00
1:00 AM,50.0,50.0,100,30.04,0.3,Calm,Calm,-,N/A,Fog,Fog,0,2013-02-11 19:30:00
1:30 AM,-9999,-9999,N/A,30.04,0.3,Calm,Calm,-,N/A,Fog,Fog,0,2013-02-11 20:00:00
2:00 AM,50.0,50.0,100,30.04,0.3,Calm,Calm,-,N/A,Fog,Fog,0,2013-02-11 20:30:00
2:30 AM,50,50,100,30.05,0,Calm,Calm,,,Fog,Partial Fog,,2013-02-11 21:00:00
2:30 AM,50.0,50.0,100,30.04,0.3,Calm,Calm,-,N/A,Fog,Fog,0,2013-02-11 21:00:00
3:00 AM,50.0,48.2,94,30.04,0.3,Calm,Calm,-,N/A,Fog,Fog,0,2013-02-11 21:30:00
4:00 AM,48.2,48.2,100,29.98,1.9,Calm,Calm,-,N/A,,Scattered Clouds,0,2013-02-11 22:30:00
5:00 AM,44.6,44.6,100,30.04,-9999.0,Calm,Calm,-,N/A,Fog,Fog,0,2013-02-11 23:30:00
5:30 AM,44.6,44.6,100,30.04,-9999.0,Calm,Calm,-,N/A,Fog,Fog,0,2013-02-12 00:00:00
6:00 AM,44.6,44.6,100,30.04,-9999.0,Calm,Calm,-,N/A,Fog,Fog,0,2013-02-12 00:30:00
6:30 AM,46.4,46.4,100,30.04,-9999.0,Calm,Calm,-,N/A,Fog,Fog,0,2013-02-12 01:00:00
7:00 AM,44.6,44.6,100,30.04,-9999.0,Calm,Calm,-,N/A,Fog,Fog,0,2013-02-12 01:30:00
7:30 AM,44.6,44.6,100,30.04,-9999.0,Calm,Calm,-,N/A,Fog,Fog,0,2013-02-12 02:00:00
8:00 AM,44.6,44.6,100,30.06,-9999.0,Calm,Calm,-,N/A,Fog,Fog,0,2013-02-12 02:30:00
8:30 AM,45,45,100,30.10,0,Calm,Calm,,,Fog,Heavy Fog,,2013-02-12 03:00:00
8:30 AM,44.6,44.6,100,30.06,-9999.0,Calm,Calm,-,N/A,Fog,Fog,0,2013-02-12 03:00:00
9:00 AM,46.4,46.4,100,30.09,-9999.0,Calm,Calm,-,N/A,Fog,Fog,0,2013-02-12 03:30:00
9:30 AM,48.2,48.2,100,30.09,0.1,Calm,Calm,-,N/A,Fog,Fog,0,2013-02-12 04:00:00
10:00 AM,57.2,51.8,82,30.04,3.1,Calm,Calm,-,N/A,,Mostly Cloudy,0,2013-02-12 04:30:00
10:30 AM,59.0,51.8,77,30.04,3.7,Calm,Calm,-,N/A,,Scattered Clouds,0,2013-02-12 05:00:00
11:00 AM,57.2,57.2,100,30.12,0.6,Calm,Calm,-,N/A,,Partly Cloudy,0,2013-02-12 05:30:00
11:30 AM,62,62,100,30.12,1,Calm,Calm,,,,Mist,,2013-02-12 06:00:00
11:30 AM,62.6,62.6,100,30.12,1.1,Calm,Calm,-,N/A,,Partly Cloudy,0,2013-02-12 06:00:00
12:00 PM,66.2,60.8,83,30.12,1.6,Variable,2.3,-,N/A,,Partly Cloudy,0,2013-02-12 06:30:00
12:30 PM,68.0,57.2,68,30.12,1.9,Variable,2.3,-,N/A,,Haze,0,2013-02-12 07:00:00
1:00 PM,69.8,55.4,60,30.12,2.5,Variable,3.5,-,N/A,,Haze,0,2013-02-12 07:30:00
1:30 PM,69.8,51.8,53,30.09,3.1,WNW,5.8,-,N/A,,Haze,290,2013-02-12 08:00:00
2:00 PM,69.8,50.0,49,30.09,3.7,NW,5.8,-,N/A,,Partly Cloudy,310,2013-02-12 08:30:00
2:30 PM,71,51,39,30.06,2,WNW,5.8,,,,Scattered Clouds,290,2013-02-12 09:00:00
2:30 PM,71.6,51.8,50,30.06,3.7,WNW,5.8,-,N/A,,Partly Cloudy,290,2013-02-12 09:00:00
3:00 PM,69.8,53.6,56,30.06,3.7,West,5.8,-,N/A,,Partly Cloudy,280,2013-02-12 09:30:00
3:30 PM,69.8,51.8,53,30.06,3.7,West,8.1,-,N/A,,Partly Cloudy,280,2013-02-12 10:00:00
4:00 PM,66.2,46.4,49,29.95,3.7,Calm,Calm,-,N/A,,Mostly Cloudy,0,2013-02-12 10:30:00
4:30 PM,69.8,53.6,56,30.04,3.7,NW,5.8,-,N/A,,Partly Cloudy,310,2013-02-12 11:00:00
5:00 PM,69.8,53.6,56,30.04,3.7,NW,4.6,-,N/A,,Partly Cloudy,310,2013-02-12 11:30:00
5:30 PM,68,55,54,30.03,2,WNW,4.6,,,,Scattered Clouds,290,2013-02-12 12:00:00
5:30 PM,68.0,55.4,64,30.04,3.7,WNW,4.6,-,N/A,,Partly Cloudy,290,2013-02-12 12:00:00
6:00 PM,66.2,57.2,73,30.04,3.7,Calm,Calm,-,N/A,,Partly Cloudy,0,2013-02-12 12:30:00
7:00 PM,62.6,55.4,77,30.04,3.1,Calm,Calm,-,N/A,,Scattered Clouds,0,2013-02-12 13:30:00
7:30 PM,62.6,57.2,82,30.04,3.1,Calm,Calm,-,N/A,,Scattered Clouds,0,2013-02-12 14:00:00
8:00 PM,60.8,57.2,88,30.04,3.1,NW,5.8,-,N/A,,Scattered Clouds,310,2013-02-12 14:30:00
8:30 PM,59.0,55.4,88,30.04,2.5,Variable,3.5,-,N/A,,Scattered Clouds,0,2013-02-12 15:00:00
9:00 PM,57.2,55.4,94,30.04,2.5,Calm,Calm,-,N/A,,Scattered Clouds,0,2013-02-12 15:30:00
9:30 PM,55.4,55.4,100,30.06,2.5,Calm,Calm,-,N/A,,Scattered Clouds,0,2013-02-12 16:00:00
10:00 PM,55.4,53.6,94,30.06,2.5,Calm,Calm,-,N/A,,Scattered Clouds,0,2013-02-12 16:30:00
10:30 PM,53.6,53.6,100,30.06,2.5,Calm,Calm,-,N/A,,Scattered Clouds,0,2013-02-12 17:00:00
11:00 PM,53.6,53.6,100,30.04,2.5,Calm,Calm,-,N/A,,Scattered Clouds,0,2013-02-12 17:30:00
11:30 PM,54,54,98,30.06,1,Calm,Calm,,,,Mist,,2013-02-12 18:00:00